| time (UTC) | temp F | wind direction | speed MPH | gust MPH | rain 1hr in | rain 24hr in | rain mn in | humidity % | barometer mb |
| 20260507025558 | 44 | 304 | 1.0 | 4.0 | 0.00 | 0.35 | 0.03 | 98 | 1012.3 |
| 20260507025057 | 44 | 355 | 1.0 | 4.0 | 0.00 | 0.35 | 0.03 | 99 | 1012.4 |
| 20260507024604 | 45 | 317 | 1.0 | 4.0 | 0.00 | 0.35 | 0.03 | 99 | 1012.3 |
| 20260507024050 | 45 | 336 | 1.0 | 4.0 | 0.00 | 0.35 | 0.03 | 99 | 1012.3 |
| 20260507023557 | 45 | 324 | 1.0 | 4.0 | 0.00 | 0.35 | 0.03 | 99 | 1012.3 |
| 20260507023052 | 45 | 295 | 0.0 | 2.0 | 0.00 | 0.35 | 0.03 | 99 | 1012.2 |
| 20260507022554 | 45 | 294 | 0.0 | 3.0 | 0.00 | 0.35 | 0.03 | 99 | 1012.2 |
| 20260507022054 | 45 | 302 | 1.0 | 3.0 | 0.00 | 0.35 | 0.03 | 99 | 1012.1 |
| 20260507021550 | 45 | 317 | 1.0 | 4.0 | 0.01 | 0.35 | 0.03 | 99 | 1012.2 |
| 20260507021049 | 45 | 288 | 1.0 | 3.0 | 0.01 | 0.35 | 0.03 | 99 | 1012.1 |
| 20260507020548 | 45 | 326 | 1.0 | 3.0 | 0.01 | 0.35 | 0.03 | 99 | 1012.0 |
| 20260507020105 | 44 | 315 | 0.0 | 3.0 | 0.02 | 0.35 | 0.03 | 99 | 1012.0 |
| 20260507015547 | 44 | 323 | 1.0 | 3.0 | 0.02 | 0.39 | 0.03 | 99 | 1012.0 |
| 20260507015047 | 44 | 323 | 0.0 | 2.0 | 0.02 | 0.39 | 0.03 | 99 | 1012.1 |
| 20260507014555 | 44 | 323 | 0.0 | 3.0 | 0.02 | 0.39 | 0.03 | 99 | 1012.1 |
| 20260507014047 | 44 | 323 | 0.0 | 3.0 | 0.02 | 0.39 | 0.03 | 98 | 1012.0 |
| 20260507013546 | 44 | 323 | 0.0 | 3.0 | 0.02 | 0.39 | 0.03 | 98 | 1011.9 |
| 20260507013049 | 44 | 5 | 0.0 | 3.0 | 0.02 | 0.39 | 0.03 | 98 | 1011.9 |
| 20260507012545 | 44 | 13 | 0.0 | 3.0 | 0.02 | 0.39 | 0.03 | 98 | 1011.7 |
| 20260507012045 | 44 | 350 | 1.0 | 3.0 | 0.02 | 0.39 | 0.03 | 99 | 1011.8 |
| 20260507011545 | 44 | 351 | 0.0 | 4.0 | 0.02 | 0.39 | 0.02 | 98 | 1011.7 |
| 20260507011044 | 45 | 360 | 1.0 | 4.0 | 0.02 | 0.39 | 0.02 | 98 | 1011.7 |
| 20260507010545 | 44 | 355 | 1.0 | 3.0 | 0.02 | 0.39 | 0.02 | 98 | 1011.7 |
| 20260507010043 | 44 | 10 | 0.0 | 4.0 | 0.02 | 0.38 | 0.02 | 98 | 1011.6 |
| 20260507005542 | 44 | 36 | 0.0 | 4.0 | 0.02 | 0.44 | 0.02 | 98 | 1011.6 |
| 20260507005041 | 44 | 319 | 1.0 | 6.0 | 0.02 | 0.44 | 0.02 | 98 | 1011.5 |
| 20260507004544 | 44 | 252 | 2.0 | 6.0 | 0.02 | 0.44 | 0.02 | 98 | 1011.5 |
| 20260507004041 | 44 | 170 | 1.0 | 6.0 | 0.02 | 0.44 | 0.02 | 98 | 1011.4 |
| 20260507003541 | 44 | 331 | 2.0 | 6.0 | 0.02 | 0.44 | 0.02 | 98 | 1011.4 |
| 20260507003040 | 45 | 346 | 2.0 | 5.0 | 0.01 | 0.43 | 0.01 | 98 | 1011.5 |
| 20260507002539 | 45 | 302 | 0.0 | 4.0 | 0.01 | 0.43 | 0.01 | 98 | 1011.4 |
| 20260507002039 | 45 | 141 | 2.0 | 6.0 | 0.01 | 0.43 | 0.01 | 98 | 1011.3 |
| 20260507001538 | 45 | 360 | 1.0 | 6.0 | 0.01 | 0.43 | 0.01 | 98 | 1011.3 |
| 20260507001038 | 45 | 342 | 2.0 | 4.0 | 0.00 | 0.43 | 0.00 | 98 | 1011.3 |
| 20260507000539 | 45 | 61 | 2.0 | 4.0 | 0.00 | 0.43 | 0.00 | 98 | 1011.4 |
| 20260507000037 | 45 | 328 | 0.0 | 5.0 | 0.00 | 0.43 | 0.00 | 98 | 1011.3 |
| 20260506235537 | 45 | 355 | 0.0 | 6.0 | 0.00 | 0.49 | 0.00 | 98 | 1011.2 |
| 20260506235040 | 45 | 355 | 2.0 | 6.0 | 0.00 | 0.49 | 0.00 | 98 | 1011.3 |
| 20260506234539 | 45 | 329 | 1.0 | 5.0 | 0.00 | 0.49 | 0.00 | 98 | 1011.2 |
| 20260506234036 | 45 | 331 | 1.0 | 9.0 | 0.00 | 0.49 | 0.00 | 98 | 1011.2 |
| 20260506233536 | 45 | 304 | 1.0 | 9.0 | 0.00 | 0.49 | 0.00 | 98 | 1011.3 |
| 20260506233036 | 45 | 322 | 1.0 | 8.0 | 0.00 | 0.49 | 0.00 | 98 | 1011.3 |
| 20260506232534 | 45 | 323 | 1.0 | 5.0 | 0.00 | 0.49 | 0.00 | 98 | 1011.3 |
| 20260506232035 | 45 | 19 | 1.0 | 5.0 | 0.00 | 0.49 | 0.00 | 98 | 1011.2 |
| 20260506231545 | 45 | 347 | 0.0 | 3.0 | 0.00 | 0.49 | 0.00 | 98 | 1011.3 |
| 20260506231035 | 45 | 286 | 0.0 | 3.0 | 0.00 | 0.49 | 0.00 | 98 | 1011.2 |
| 20260506230532 | 45 | 342 | 1.0 | 5.0 | 0.00 | 0.49 | 0.00 | 98 | 1011.2 |
| 20260506230045 | 45 | 275 | 1.0 | 5.0 | 0.00 | 0.49 | 0.00 | 98 | 1011.2 |
| 20260506225535 | 45 | 9 | 0.0 | 4.0 | 0.00 | 0.56 | 0.00 | 98 | 1011.1 |
| 20260506225032 | 45 | 340 | 1.0 | 3.0 | 0.00 | 0.56 | 0.00 | 98 | 1011.1 |
| 20260506224532 | 45 | 343 | 0.0 | 4.0 | 0.00 | 0.56 | 0.00 | 98 | 1011.2 |
| 20260506224030 | 45 | 342 | 1.0 | 4.0 | 0.00 | 0.56 | 0.00 | 98 | 1011.1 |
| 20260506223534 | 45 | 340 | 1.0 | 3.0 | 0.00 | 0.56 | 0.00 | 98 | 1011.0 |
| 20260506223044 | 45 | 10 | 1.0 | 4.0 | 0.00 | 0.56 | 0.00 | 98 | 1011.0 |
| 20260506222530 | 45 | 355 | 0.0 | 5.0 | 0.00 | 0.56 | 0.00 | 98 | 1011.0 |
| 20260506222030 | 45 | 307 | 1.0 | 5.0 | 0.00 | 0.56 | 0.00 | 98 | 1011.0 |
| 20260506221530 | 45 | 345 | 1.0 | 3.0 | 0.00 | 0.56 | 0.00 | 98 | 1011.0 |
| 20260506221033 | 45 | 321 | 0.0 | 4.0 | 0.00 | 0.56 | 0.00 | 98 | 1011.0 |
| 20260506220530 | 45 | 324 | 1.0 | 4.0 | 0.00 | 0.56 | 0.00 | 98 | 1011.0 |
| 20260506220028 | 45 | 320 | 1.0 | 3.0 | 0.00 | 0.56 | 0.00 | 98 | 1011.0 |
| 20260506215531 | 45 | 299 | 1.0 | 4.0 | 0.00 | 0.63 | 0.56 | 98 | 1010.9 |
| 20260506215026 | 45 | 322 | 1.0 | 4.0 | 0.00 | 0.63 | 0.56 | 98 | 1011.0 |
| 20260506214526 | 45 | 355 | 0.0 | 4.0 | 0.00 | 0.63 | 0.56 | 98 | 1010.9 |
| 20260506214026 | 45 | 351 | 0.0 | 3.0 | 0.00 | 0.63 | 0.56 | 98 | 1010.9 |
| 20260506213526 | 45 | 355 | 0.0 | 2.0 | 0.01 | 0.63 | 0.56 | 98 | 1010.9 |
| 20260506213029 | 45 | 355 | 0.0 | 3.0 | 0.01 | 0.63 | 0.56 | 98 | 1010.9 |
| 20260506212525 | 45 | 349 | 1.0 | 4.0 | 0.01 | 0.63 | 0.56 | 98 | 1010.9 |
| 20260506212025 | 45 | 313 | 1.0 | 4.0 | 0.01 | 0.63 | 0.56 | 98 | 1010.9 |
| 20260506211533 | 45 | 349 | 1.0 | 4.0 | 0.01 | 0.63 | 0.56 | 98 | 1010.9 |
| 20260506211025 | 45 | 338 | 0.0 | 4.0 | 0.01 | 0.63 | 0.56 | 98 | 1010.9 |
| 20260506210524 | 45 | 341 | 1.0 | 4.0 | 0.01 | 0.63 | 0.56 | 98 | 1010.9 |
| 20260506210025 | 45 | 5 | 0.0 | 4.0 | 0.01 | 0.63 | 0.56 | 98 | 1010.8 |
| 20260506205523 | 45 | 306 | 1.0 | 5.0 | 0.01 | 0.68 | 0.56 | 98 | 1010.7 |
| 20260506205023 | 45 | 341 | 1.0 | 5.0 | 0.01 | 0.68 | 0.56 | 98 | 1010.8 |
| 20260506204523 | 45 | 10 | 0.0 | 3.0 | 0.01 | 0.68 | 0.56 | 98 | 1010.8 |
| 20260506204021 | 45 | 343 | 0.0 | 4.0 | 0.00 | 0.67 | 0.55 | 98 | 1010.7 |
| 20260506203521 | 45 | 347 | 1.0 | 4.0 | 0.01 | 0.67 | 0.55 | 98 | 1010.7 |
| 20260506203026 | 45 | 345 | 0.0 | 4.0 | 0.01 | 0.67 | 0.55 | 98 | 1010.7 |
| 20260506202521 | 45 | 321 | 1.0 | 4.0 | 0.01 | 0.67 | 0.55 | 98 | 1010.6 |
| 20260506202022 | 45 | 9 | 0.0 | 4.0 | 0.01 | 0.67 | 0.55 | 98 | 1010.6 |
| 20260506201530 | 45 | 294 | 0.0 | 4.0 | 0.01 | 0.67 | 0.55 | 98 | 1010.5 |
| 20260506201019 | 45 | 360 | 0.0 | 4.0 | 0.01 | 0.67 | 0.55 | 98 | 1010.6 |
| 20260506200518 | 45 | 335 | 1.0 | 5.0 | 0.01 | 0.67 | 0.55 | 98 | 1010.5 |
| 20260506200018 | 45 | 298 | 1.0 | 8.0 | 0.01 | 0.67 | 0.55 | 98 | 1010.5 |
| 20260506195517 | 45 | 284 | 3.0 | 8.0 | 0.01 | 0.71 | 0.55 | 98 | 1010.4 |
| 20260506195018 | 45 | 317 | 0.0 | 4.0 | 0.01 | 0.71 | 0.55 | 98 | 1010.4 |
| 20260506194521 | 45 | 325 | 1.0 | 5.0 | 0.01 | 0.71 | 0.55 | 98 | 1010.4 |
| 20260506194017 | 45 | 341 | 1.0 | 5.0 | 0.01 | 0.71 | 0.55 | 98 | 1010.4 |
| 20260506193516 | 45 | 315 | 1.0 | 5.0 | 0.00 | 0.70 | 0.54 | 98 | 1010.4 |
| 20260506193014 | 45 | 346 | 0.0 | 5.0 | 0.00 | 0.70 | 0.54 | 98 | 1010.4 |
| 20260506192514 | 45 | 49 | 1.0 | 3.0 | 0.00 | 0.70 | 0.54 | 98 | 1010.2 |
| 20260506192013 | 45 | 69 | 1.0 | 5.0 | 0.00 | 0.70 | 0.54 | 98 | 1010.2 |
| 20260506191513 | 45 | 31 | 1.0 | 6.0 | 0.00 | 0.70 | 0.54 | 98 | 1010.1 |
| 20260506191016 | 45 | 174 | 2.0 | 6.0 | 0.01 | 0.70 | 0.54 | 98 | 1010.0 |
| 20260506190516 | 45 | 347 | 1.0 | 5.0 | 0.01 | 0.70 | 0.54 | 98 | 1009.8 |
| 20260506190010 | 45 | 280 | 1.0 | 4.0 | 0.01 | 0.70 | 0.54 | 98 | 1009.8 |
| 20260506185510 | 45 | 325 | 0.0 | 4.0 | 0.01 | 0.71 | 0.54 | 98 | 1009.8 |
| 20260506185014 | 45 | 317 | 1.0 | 4.0 | 0.01 | 0.71 | 0.54 | 98 | 1009.7 |
| 20260506184508 | 45 | 26 | 0.0 | 3.0 | 0.01 | 0.71 | 0.54 | 98 | 1009.6 |
| 20260506184011 | 45 | 355 | 0.0 | 4.0 | 0.01 | 0.71 | 0.54 | 98 | 1009.6 |
| 20260506183508 | 46 | 36 | 1.0 | 4.0 | 0.01 | 0.71 | 0.54 | 98 | 1009.5 |
| 20260506183106 | 46 | 121 | 1.0 | 4.0 | 0.01 | 0.71 | 0.54 | 98 | 1009.4 |
| 20260506182506 | 46 | 331 | 1.0 | 4.0 | 0.01 | 0.71 | 0.54 | 98 | 1009.4 |
| 20260506182005 | 46 | 13 | 1.0 | 5.0 | 0.01 | 0.71 | 0.54 | 98 | 1009.3 |
| 20260506181508 | 46 | 355 | 1.0 | 5.0 | 0.01 | 0.71 | 0.54 | 98 | 1009.3 |
| 20260506181005 | 46 | 333 | 1.0 | 6.0 | 0.00 | 0.70 | 0.54 | 98 | 1009.2 |
| 20260506180504 | 46 | 350 | 2.0 | 6.0 | 0.00 | 0.70 | 0.54 | 98 | 1009.2 |
| 20260506180008 | 46 | 99 | 2.0 | 6.0 | 0.00 | 0.70 | 0.54 | 98 | 1009.1 |
| 20260506175502 | 46 | 327 | 2.0 | 6.0 | 0.00 | 0.70 | 0.54 | 98 | 1009.1 |
| 20260506175004 | 46 | 10 | 1.0 | 5.0 | 0.00 | 0.70 | 0.54 | 98 | 1009.1 |
| 20260506174506 | 46 | 319 | 2.0 | 5.0 | 0.00 | 0.70 | 0.54 | 98 | 1009.1 |
| 20260506174002 | 46 | 350 | 2.0 | 5.0 | 0.00 | 0.70 | 0.54 | 98 | 1009.0 |
| 20260506173501 | 46 | 338 | 1.0 | 4.0 | 0.01 | 0.70 | 0.54 | 98 | 1009.0 |
| 20260506173109 | 47 | 323 | 1.0 | 5.0 | 0.01 | 0.70 | 0.54 | 98 | 1008.9 |
| 20260506172603 | 47 | 344 | 1.0 | 3.0 | 0.01 | 0.70 | 0.54 | 98 | 1008.8 |
| 20260506172104 | 47 | 29 | 0.0 | 5.0 | 0.01 | 0.70 | 0.54 | 98 | 1008.8 |
| 20260506171559 | 47 | 360 | 0.0 | 5.0 | 0.01 | 0.70 | 0.54 | 98 | 1008.7 |
| 20260506171103 | 47 | 42 | 1.0 | 2.0 | 0.01 | 0.70 | 0.54 | 98 | 1008.6 |
| 20260506170558 | 47 | 123 | 0.0 | 4.0 | 0.01 | 0.70 | 0.54 | 98 | 1008.6 |
| 20260506170114 | 47 | 355 | 1.0 | 4.0 | 0.01 | 0.70 | 0.54 | 98 | 1008.5 |
| 20260506165557 | 47 | 349 | 0.0 | 3.0 | 0.01 | 0.70 | 0.54 | 98 | 1008.6 |
| 20260506165057 | 47 | 302 | 1.0 | 4.0 | 0.01 | 0.70 | 0.54 | 98 | 1008.5 |
| 20260506164556 | 47 | 263 | 0.0 | 6.0 | 0.01 | 0.70 | 0.54 | 97 | 1008.5 |
| 20260506164056 | 47 | 316 | 2.0 | 6.0 | 0.01 | 0.70 | 0.54 | 97 | 1008.5 |
| 20260506163558 | 47 | 333 | 2.0 | 5.0 | 0.00 | 0.69 | 0.53 | 97 | 1008.4 |
| 20260506163109 | 47 | 360 | 2.0 | 6.0 | 0.01 | 0.69 | 0.53 | 97 | 1008.4 |
| 20260506162555 | 47 | 5 | 2.0 | 6.0 | 0.01 | 0.69 | 0.53 | 98 | 1008.3 |
| 20260506162055 | 47 | 9 | 0.0 | 3.0 | 0.01 | 0.69 | 0.53 | 98 | 1008.4 |
| 20260506161555 | 47 | 15 | 1.0 | 4.0 | 0.01 | 0.69 | 0.53 | 98 | 1008.4 |
| 20260506161054 | 47 | 319 | 1.0 | 4.0 | 0.01 | 0.69 | 0.53 | 98 | 1008.3 |
| 20260506160554 | 47 | 318 | 1.0 | 4.0 | 0.02 | 0.69 | 0.53 | 98 | 1008.4 |
| 20260506160053 | 47 | 355 | 1.0 | 5.0 | 0.02 | 0.69 | 0.53 | 98 | 1008.4 |
| 20260506155554 | 47 | 5 | 0.0 | 4.0 | 0.02 | 0.69 | 0.53 | 98 | 1008.4 |
| 20260506155055 | 47 | 351 | 0.0 | 4.0 | 0.02 | 0.69 | 0.53 | 98 | 1008.4 |
| 20260506154553 | 47 | 113 | 1.0 | 4.0 | 0.02 | 0.69 | 0.53 | 98 | 1008.3 |
| 20260506154053 | 47 | 355 | 1.0 | 3.0 | 0.02 | 0.69 | 0.53 | 98 | 1008.4 |
| 20260506153553 | 47 | 78 | 1.0 | 4.0 | 0.02 | 0.69 | 0.53 | 98 | 1008.4 |
| 20260506153052 | 47 | 11 | 1.0 | 4.0 | 0.02 | 0.69 | 0.52 | 98 | 1008.3 |
| 20260506152553 | 47 | 61 | 1.0 | 5.0 | 0.02 | 0.69 | 0.52 | 98 | 1008.4 |
| 20260506152051 | 47 | 13 | 0.0 | 5.0 | 0.02 | 0.69 | 0.52 | 98 | 1008.3 |
| 20260506151552 | 47 | 329 | 0.0 | 5.0 | 0.02 | 0.69 | 0.52 | 98 | 1008.3 |
| 20260506151055 | 46 | 360 | 1.0 | 5.0 | 0.02 | 0.69 | 0.52 | 98 | 1008.3 |
| 20260506150550 | 46 | 340 | 0.0 | 4.0 | 0.02 | 0.68 | 0.51 | 98 | 1008.2 |
| 20260506150049 | 46 | 314 | 2.0 | 5.0 | 0.02 | 0.68 | 0.51 | 98 | 1008.2 |
| 20260506145549 | 46 | 309 | 1.0 | 5.0 | 0.02 | 0.68 | 0.51 | 98 | 1008.1 |
| 20260506145051 | 46 | 294 | 1.0 | 5.0 | 0.03 | 0.68 | 0.51 | 98 | 1008.1 |
| 20260506144601 | 46 | 342 | 2.0 | 5.0 | 0.03 | 0.68 | 0.51 | 98 | 1008.1 |
| 20260506144047 | 46 | 13 | 1.0 | 5.0 | 0.04 | 0.68 | 0.51 | 98 | 1008.2 |
| 20260506143548 | 46 | 5 | 1.0 | 5.0 | 0.03 | 0.67 | 0.50 | 98 | 1008.1 |
| 20260506143048 | 46 | 360 | 1.0 | 5.0 | 0.04 | 0.67 | 0.50 | 98 | 1008.1 |
| 20260506142549 | 46 | 326 | 1.0 | 4.0 | 0.04 | 0.67 | 0.50 | 98 | 1008.1 |
| 20260506142049 | 46 | 325 | 1.0 | 8.0 | 0.04 | 0.66 | 0.50 | 98 | 1008.1 |
| 20260506141547 | 46 | 111 | 1.0 | 8.0 | 0.04 | 0.66 | 0.50 | 98 | 1008.1 |
| 20260506141047 | 46 | 319 | 0.0 | 5.0 | 0.05 | 0.66 | 0.50 | 98 | 1008.1 |
| 20260506140547 | 46 | 266 | 2.0 | 5.0 | 0.04 | 0.65 | 0.49 | 98 | 1008.1 |
| 20260506140046 | 46 | 340 | 2.0 | 5.0 | 0.05 | 0.65 | 0.49 | 98 | 1008.1 |
| 20260506135545 | 46 | 69 | 1.0 | 5.0 | 0.04 | 0.66 | 0.48 | 98 | 1008.1 |
| 20260506135044 | 46 | 31 | 1.0 | 4.0 | 0.05 | 0.66 | 0.48 | 98 | 1008.1 |
| 20260506134544 | 46 | 240 | 1.0 | 5.0 | 0.05 | 0.66 | 0.48 | 98 | 1008.1 |
| 20260506134043 | 46 | 329 | 1.0 | 5.0 | 0.04 | 0.65 | 0.47 | 98 | 1008.1 |
| 20260506133544 | 46 | 323 | 1.0 | 6.0 | 0.05 | 0.65 | 0.47 | 98 | 1008.0 |
| 20260506133044 | 46 | 310 | 1.0 | 3.0 | 0.04 | 0.65 | 0.46 | 98 | 1008.0 |
| 20260506132542 | 46 | 22 | 0.0 | 5.0 | 0.05 | 0.65 | 0.46 | 98 | 1008.0 |
| 20260506132044 | 46 | 13 | 2.0 | 5.0 | 0.04 | 0.64 | 0.46 | 98 | 1008.0 |
| 20260506131541 | 46 | 44 | 1.0 | 4.0 | 0.04 | 0.64 | 0.46 | 98 | 1008.0 |
| 20260506131041 | 46 | 321 | 0.0 | 5.0 | 0.03 | 0.63 | 0.45 | 98 | 1007.9 |
| 20260506130540 | 46 | 11 | 1.0 | 5.0 | 0.02 | 0.62 | 0.44 | 98 | 1008.0 |
| 20260506130040 | 46 | 10 | 1.0 | 5.0 | 0.03 | 0.62 | 0.44 | 97 | 1007.9 |
| 20260506125538 | 46 | 338 | 1.0 | 4.0 | 0.03 | 0.62 | 0.44 | 98 | 1007.9 |
| 20260506125038 | 46 | 263 | 1.0 | 4.0 | 0.02 | 0.61 | 0.43 | 98 | 1007.9 |
| 20260506124538 | 46 | 337 | 1.0 | 3.0 | 0.02 | 0.61 | 0.43 | 98 | 1007.9 |
| 20260506124037 | 46 | 309 | 1.0 | 3.0 | 0.02 | 0.61 | 0.43 | 98 | 1007.9 |
| 20260506123537 | 46 | 90 | 0.0 | 5.0 | 0.02 | 0.61 | 0.43 | 98 | 1007.8 |
| 20260506123037 | 46 | 46 | 0.0 | 5.0 | 0.02 | 0.61 | 0.43 | 98 | 1007.8 |
| 20260506122537 | 46 | 342 | 1.0 | 5.0 | 0.02 | 0.60 | 0.42 | 98 | 1007.7 |
| 20260506122035 | 46 | 349 | 1.0 | 5.0 | 0.02 | 0.60 | 0.42 | 98 | 1007.7 |
| 20260506121537 | 46 | 341 | 2.0 | 5.0 | 0.02 | 0.60 | 0.42 | 98 | 1007.7 |
| 20260506121035 | 46 | 309 | 2.0 | 4.0 | 0.02 | 0.60 | 0.42 | 98 | 1007.7 |
| 20260506120533 | 46 | 296 | 1.0 | 5.0 | 0.01 | 0.59 | 0.41 | 98 | 1007.6 |
| 20260506120041 | 46 | 18 | 1.0 | 4.0 | 0.01 | 0.59 | 0.41 | 98 | 1007.5 |
| 20260506115534 | 46 | 15 | 0.0 | 6.0 | 0.01 | 0.59 | 0.41 | 98 | 1007.6 |
| 20260506115034 | 46 | 321 | 1.0 | 6.0 | 0.01 | 0.59 | 0.41 | 98 | 1007.4 |
| 20260506114533 | 46 | 65 | 1.0 | 6.0 | 0.01 | 0.59 | 0.41 | 98 | 1007.4 |
| 20260506114032 | 46 | 74 | 1.0 | 5.0 | 0.00 | 0.57 | 0.40 | 98 | 1007.3 |
| 20260506113531 | 46 | 66 | 0.0 | 5.0 | 0.00 | 0.57 | 0.40 | 98 | 1007.3 |
| 20260506113032 | 46 | 265 | 0.0 | 6.0 | 0.01 | 0.57 | 0.40 | 98 | 1007.4 |
| 20260506112533 | 46 | 313 | 0.0 | 6.0 | 0.01 | 0.57 | 0.40 | 98 | 1007.4 |
| 20260506112028 | 46 | 355 | 1.0 | 6.0 | 0.01 | 0.57 | 0.40 | 98 | 1007.4 |
| 20260506111529 | 47 | 335 | 1.0 | 5.0 | 0.01 | 0.57 | 0.40 | 98 | 1007.3 |
| 20260506111029 | 47 | 274 | 2.0 | 5.0 | 0.01 | 0.57 | 0.40 | 98 | 1007.3 |
| 20260506110529 | 46 | 321 | 1.0 | 4.0 | 0.02 | 0.57 | 0.40 | 98 | 1007.2 |
| 20260506110028 | 47 | 71 | 1.0 | 3.0 | 0.02 | 0.57 | 0.40 | 98 | 1007.3 |
| 20260506105526 | 47 | 76 | 1.0 | 6.0 | 0.02 | 0.63 | 0.40 | 98 | 1007.3 |
| 20260506105026 | 47 | 340 | 1.0 | 5.0 | 0.02 | 0.63 | 0.40 | 98 | 1007.2 |
| 20260506104525 | 47 | 35 | 0.0 | 5.0 | 0.02 | 0.63 | 0.40 | 98 | 1007.2 |
| 20260506104026 | 47 | 82 | 1.0 | 3.0 | 0.02 | 0.63 | 0.40 | 98 | 1007.2 |
| 20260506103525 | 47 | 334 | 0.0 | 3.0 | 0.03 | 0.63 | 0.40 | 98 | 1007.1 |
| 20260506103025 | 47 | 62 | 1.0 | 5.0 | 0.02 | 0.62 | 0.39 | 98 | 1007.0 |
| 20260506102524 | 47 | 360 | 1.0 | 4.0 | 0.03 | 0.62 | 0.39 | 98 | 1007.0 |
| 20260506102022 | 47 | 92 | 1.0 | 4.0 | 0.03 | 0.62 | 0.39 | 98 | 1007.0 |
| 20260506101523 | 47 | 336 | 1.0 | 4.0 | 0.04 | 0.62 | 0.39 | 98 | 1006.9 |
| 20260506101026 | 47 | 334 | 0.0 | 4.0 | 0.04 | 0.62 | 0.39 | 98 | 1006.9 |
| 20260506100526 | 47 | 130 | 1.0 | 3.0 | 0.03 | 0.61 | 0.39 | 98 | 1006.8 |
| 20260506100021 | 47 | 93 | 0.0 | 4.0 | 0.03 | 0.61 | 0.39 | 98 | 1006.9 |
| 20260506095521 | 48 | 22 | 2.0 | 6.0 | 0.03 | 0.69 | 0.39 | 98 | 1006.9 |
| 20260506095021 | 48 | 348 | 1.0 | 6.0 | 0.03 | 0.69 | 0.39 | 98 | 1006.8 |
| 20260506094521 | 48 | 52 | 0.0 | 3.0 | 0.02 | 0.69 | 0.38 | 98 | 1006.8 |
| 20260506094021 | 47 | 67 | 1.0 | 4.0 | 0.02 | 0.69 | 0.38 | 98 | 1006.8 |
| 20260506093522 | 47 | 5 | 0.0 | 5.0 | 0.02 | 0.68 | 0.37 | 98 | 1006.8 |
| 20260506093019 | 48 | 355 | 1.0 | 5.0 | 0.02 | 0.68 | 0.37 | 98 | 1006.7 |
| 20260506092519 | 48 | 326 | 1.0 | 4.0 | 0.01 | 0.67 | 0.36 | 98 | 1006.8 |
| 20260506092021 | 48 | 167 | 1.0 | 4.0 | 0.01 | 0.67 | 0.36 | 98 | 1006.6 |
| 20260506091519 | 48 | 335 | 1.0 | 4.0 | 0.00 | 0.66 | 0.35 | 98 | 1006.4 |
| 20260506091019 | 48 | 74 | 1.0 | 4.0 | 0.00 | 0.66 | 0.35 | 98 | 1006.4 |
| 20260506090519 | 48 | 165 | 1.0 | 5.0 | 0.01 | 0.66 | 0.35 | 98 | 1006.4 |
| 20260506090026 | 48 | 59 | 1.0 | 6.0 | 0.01 | 0.66 | 0.35 | 98 | 1006.4 |
| 20260506085519 | 48 | 40 | 1.0 | 6.0 | 0.01 | 0.66 | 0.35 | 98 | 1006.4 |
| 20260506085017 | 48 | 320 | 1.0 | 5.0 | 0.01 | 0.66 | 0.35 | 98 | 1006.3 |
| 20260506084520 | 48 | 331 | 1.0 | 4.0 | 0.01 | 0.66 | 0.35 | 98 | 1006.3 |
| 20260506084017 | 48 | 307 | 0.0 | 5.0 | 0.01 | 0.66 | 0.35 | 98 | 1006.4 |
| 20260506083517 | 48 | 338 | 0.0 | 4.0 | 0.01 | 0.66 | 0.35 | 98 | 1006.3 |
| 20260506083017 | 48 | 330 | 2.0 | 4.0 | 0.01 | 0.66 | 0.35 | 98 | 1006.2 |
| 20260506082516 | 48 | 17 | 1.0 | 4.0 | 0.01 | 0.66 | 0.35 | 98 | 1006.3 |
| 20260506082016 | 48 | 348 | 0.0 | 4.0 | 0.01 | 0.66 | 0.35 | 98 | 1006.2 |
| 20260506081516 | 48 | 344 | 1.0 | 4.0 | 0.01 | 0.66 | 0.35 | 98 | 1006.3 |
| 20260506081016 | 48 | 360 | 1.0 | 4.0 | 0.01 | 0.66 | 0.35 | 98 | 1006.2 |
| 20260506080516 | 48 | 49 | 0.0 | 0.0 | 0.00 | 0.65 | 0.35 | 98 | 1006.2 |
| 20260506073514 | 48 | 355 | 0.0 | 4.0 | 0.01 | 0.65 | 0.35 | 98 | 1006.2 |
| 20260506073014 | 48 | 40 | 1.0 | 6.0 | 0.01 | 0.65 | 0.35 | 98 | 1006.1 |
| 20260506072513 | 48 | 82 | 2.0 | 6.0 | 0.01 | 0.65 | 0.35 | 98 | 1006.1 |
| 20260506072012 | 48 | 346 | 1.0 | 5.0 | 0.01 | 0.65 | 0.35 | 98 | 1006.1 |
| 20260506071511 | 48 | 332 | 1.0 | 5.0 | 0.02 | 0.65 | 0.35 | 98 | 1006.1 |
| 20260506071010 | 48 | 338 | 1.0 | 4.0 | 0.02 | 0.65 | 0.35 | 98 | 1006.0 |
| 20260506070610 | 48 | 344 | 1.0 | 4.0 | 0.02 | 0.65 | 0.35 | 98 | 1006.0 |
| 20260506062506 | 48 | 26 | 1.0 | 4.0 | 0.02 | 0.65 | 0.34 | 98 | 1005.8 |
| 20260506062006 | 48 | 355 | 2.0 | 4.0 | 0.02 | 0.65 | 0.34 | 98 | 1005.8 |
| 20260506061505 | 48 | 360 | 0.0 | 3.0 | 0.02 | 0.65 | 0.33 | 98 | 1005.8 |
| 20260506061004 | 48 | 309 | 0.0 | 3.0 | 0.02 | 0.65 | 0.33 | 98 | 1005.7 |
| 20260506060505 | 48 | 49 | 0.0 | 3.0 | 0.02 | 0.65 | 0.33 | 98 | 1005.7 |
| 20260506051058 | 47 | 322 | 0.0 | 2.0 | 0.02 | 0.63 | 0.31 | 98 | 1005.6 |
| 20260506050558 | 47 | 323 | 0.0 | 4.0 | 0.02 | 0.63 | 0.31 | 98 | 1005.6 |
| 20260506050110 | 47 | 348 | 0.0 | 4.0 | 0.02 | 0.63 | 0.31 | 98 | 1005.7 |
| 20260506044555 | 47 | 342 | 0.0 | 3.0 | 0.02 | 0.62 | 0.31 | 98 | 1005.6 |
| 20260506044055 | 47 | 284 | 0.0 | 3.0 | 0.02 | 0.62 | 0.31 | 98 | 1005.7 |
| 20260506043553 | 47 | 336 | 0.0 | 3.0 | 0.01 | 0.61 | 0.30 | 98 | 1005.6 |
| 20260506043100 | 47 | 325 | 0.0 | 6.0 | 0.01 | 0.61 | 0.30 | 98 | 1005.6 |
| 20260506042552 | 48 | 90 | 1.0 | 6.0 | 0.02 | 0.61 | 0.30 | 98 | 1005.6 |
| 20260506042053 | 48 | 9 | 1.0 | 4.0 | 0.02 | 0.61 | 0.30 | 98 | 1005.6 |
| 20260506041552 | 48 | 344 | 1.0 | 4.0 | 0.02 | 0.61 | 0.30 | 98 | 1005.5 |
| 20260506041052 | 48 | 111 | 1.0 | 4.0 | 0.02 | 0.61 | 0.30 | 98 | 1005.5 |
| 20260506040550 | 48 | 94 | 0.0 | 3.0 | 0.02 | 0.61 | 0.30 | 98 | 1005.5 |
| 20260506040100 | 48 | 44 | 1.0 | 6.0 | 0.03 | 0.61 | 0.30 | 98 | 1005.5 |
| 20260506035549 | 48 | 334 | 1.0 | 6.0 | 0.03 | 0.61 | 0.30 | 98 | 1005.5 |
| 20260506035050 | 48 | 306 | 1.0 | 5.0 | 0.02 | 0.61 | 0.28 | 98 | 1005.4 |
| 20260506034551 | 48 | 89 | 1.0 | 4.0 | 0.02 | 0.61 | 0.28 | 98 | 1005.4 |
| 20260506034047 | 48 | 340 | 1.0 | 4.0 | 0.02 | 0.61 | 0.28 | 98 | 1005.5 |
| 20260506033547 | 49 | 329 | 0.0 | 3.0 | 0.03 | 0.61 | 0.28 | 98 | 1005.6 |
| 20260506033049 | 49 | 15 | 1.0 | 3.0 | 0.03 | 0.61 | 0.28 | 98 | 1005.4 |
| 20260506032548 | 49 | 58 | 1.0 | 5.0 | 0.02 | 0.60 | 0.28 | 98 | 1005.5 |
| 20260506032046 | 49 | 70 | 0.0 | 4.0 | 0.02 | 0.60 | 0.28 | 98 | 1005.6 |
| 20260506031550 | 49 | 337 | 0.0 | 4.0 | 0.03 | 0.60 | 0.28 | 98 | 1005.6 |
| 20260506031047 | 49 | 122 | 1.0 | 4.0 | 0.02 | 0.59 | 0.28 | 98 | 1005.6 |
| 20260506030543 | 49 | 360 | 1.0 | 3.0 | 0.02 | 0.59 | 0.28 | 98 | 1005.6 |
| 20260506030045 | 49 | 284 | 0.0 | 4.0 | 0.02 | 0.57 | 0.27 | 98 | 1005.7 |